EHI
0 0 0 0 0 0 0 0 0 0 0 0 0 0 0 0 0 0 0 0 0 0 0 0 0 0 0 0 0 0 0 0 0 0 0 0 0 0
0 0 0 0 0 0 0 0 0 0 0 0 0 0 0 0 0 0 0 0 0 0 0 0 0 0 0 0 0 0 0 0 0 0 0 0 0 0
0 0 0 0 0 0 0 0 0 0 0 0 0 0 0 0 0 0 0 0 0 0 0 0 0 0 0 0 0 0 0 0 0 0 0 0 0 0
0 0 0 0 0 0 0 0 0 0 0 0 0 0 0 0 0 0 0 0 0 0 0 0 0 0 0 0 0 0 0 0 0 0 0 0 0 0
0 0 0 0 0 0 0 0 0 0 0 0 0 0 0 0 0 0 0 0 0 0 0 0 0 0 0 0 0 0 0 0 0 0 0 0 0 0
0 0 0 0 0 0 0 0 0 0 0 0 0 0 0 0 0 0 0 0 0 0 0 0 0 0 0 0 0 0 0 0 0 0 0 0 0 0
0 0 0 0 0 0 0 0 0 0 0 0 0 0 0 0 0 0 0 0 0 0 0 0 0 0 0 0 0 0 0 0 0 0 0 0 0 0
0 0 0 0 0 0 0 0 0 0 0 0 0 0 0 0 0 0 0 0 0 0 0 0 0 0 0 0 0 0 0 0 0 0 0 0 0 0
0 0 0 0 0 0 0 0 0 0 0 0 0 0 0 0 0 0 0 0 0 0 0 0 0 0 0 0 0 0 0 0 0 0 0 0 0 0
0 0 0 0 0 0 0 0 0 0 0 0 0 0 0 0 0 0 0 0 0 0 0 0 0 0 0 0 0 0 0 0 0 0 0 0 0 0
0 0 0 0 0 0 0 0 0 0 0 0 0 0 0 0 0 0 0 0 0 0 0 0 0 0 0 0 0 0 0 0 0 0 0 0 0 0
0 0 0 0 0 0 0 0 0 0 0 0 0 0 0 0 0 0 0 0 0 0 0 0 0 0 0 0 0 0 0 0 0 0 0 0 0 0
0 0 0 0 0 0 0 0 0 0 0 0 0 0 0 0 0 0 0 0 0 0 0 0 0 0 0 0 0 0 0 0 0 0 0 0 0 0
0 0 0 0 0 0 0 0 0 0 0 0 0 0 0 0 0 0 0 0 0 0 0 0 0 0 0 0 0 0 0 0 0 0 0 0 0 0
0 0 0 0 0 0 0 0 0 0 0 0 0 0 0 0 0 0 0 0 0 0 0 0 0 0 0 0 0 0 0 0 0 0 0 0 0 0
0 0 0 0 0 0 0 0 0 0 0 0 0 0 0 0 0 0 0 0 0 0 0 0 0 0 0 0 0 0 0 0 0 0 0 0 0 0
0 0 0 0 0 0 0 0 0 0 0 0 0 0 0 0 0 0 0 0 0 0 0 0 0 0 0 0 0 0 0 0 0 0 0 0 0 0
0 0 0 0 0 0 0 0 0 0 0 0 0 0 0 0 0 0 0 0 0 0 0 0 0 0 0 0 0 0 0 0 0 0 0 0 0 0
0 0 0 0 0 0 0 0 0 0 0 0 0 0 0 0 0 0 0 0 0 0 0 0 0 0 0 0 0 0 0 0 0 0 0 0 0 0
0 0 0 0 0 0 0 0 0 0 0 0 0 0 0 0 0 0 0 0 0 0 0 0 0 0 0 0 0 0 0 0 0 0 0 0 0 0
0 0 0 0 0 0 0 0 0 0 0 0 0 0 0 0 0 0 0 0 0 0 0 0 0 0 0 0 0 0 0 0 0 0 0 0 0 0
0 0 0 0 0 0 0 0 0 0 0 0 0 0 0 0 0 0 0 0 0 0 0 0 0 0 0 0 0 0 0 0 0 0 0 0 0 0
0 0 0 0 0 0 0 0 0 0 0 0 0 0 0 0 0 0 0 0 0 0 0 0 0 0 0 0 0 0 0 0 0 0 0 0 0 0
Wind_Speed
1 1 1 1 1 1 1 1 2 3 3 2 1 2 3 3 6 4 5 10 11 11 11 10 10 11 11 11 11 11 11 11 12 12 12 12 12 12
1 1 1 1 1 1 1 1 2 3 4 2 2 3 4 4 7 5 5 11 10 11 10 10 10 10 10 11 11 11 11 12 12 12 13 13 13 13
1 1 2 1 1 1 1 1 1 2 4 4 2 2 3 4 5 4 4 4 5 10 10 10 10 10 10 11 11 12 12 12 12 12 13 13 13 14
2 1 2 1 2 1 1 2 2 2 3 5 3 3 3 4 4 4 5 5 4 9 10 10 10 11 11 11 12 12 12 12 12 13 13 13 14 14
3 2 3 2 2 2 2 2 2 2 2 3 4 2 2 3 4 4 4 4 5 7 9 9 11 11 11 12 12 12 12 12 12 12 13 13 13 14
3 3 3 3 3 3 2 2 2 2 2 3 3 3 3 2 2 3 5 4 5 5 6 8 10 11 12 12 12 11 11 12 13 13 13 13 14 14
3 3 3 4 5 4 3 2 2 2 2 3 3 3 3 3 3 3 5 6 4 2 4 4 5 4 6 9 10 11 12 12 13 13 13 14 14 14
4 3 4 4 6 7 7 5 3 3 3 2 2 3 4 3 3 4 4 5 4 2 4 6 3 4 4 4 10 12 12 12 13 14 14 14 15 15
4 4 3 3 5 3 4 5 4 5 4 3 3 3 3 3 3 4 4 4 5 4 4 5 3 4 4 6 13 12 12 13 14 15 15 15 15 16
5 5 4 4 4 4 3 2 2 2 3 2 2 3 3 3 2 3 4 5 5 3 2 4 3 4 6 5 10 10 12 14 15 16 16 16 16 16
4 4 5 4 8 8 4 3 3 2 3 4 4 3 4 5 3 2 3 4 4 3 1 2 3 5 5 4 5 10 12 15 16 16 16 17 17 15
3 4 7 7 8 8 4 4 4 3 2 2 2 3 3 3 4 1 2 2 3 3 2 3 3 5 6 3 3 4 7 12 15 16 17 17 17 9
4 3 4 9 9 9 6 4 5 3 2 2 1 2 1 1 1 1 1 2 3 4 3 3 3 3 4 6 5 4 4 5 7 9 13 16 17 13
4 4 4 8 9 8 6 5 6 4 1 1 1 2 2 2 2 2 3 3 4 5 5 4 4 4 5 7 7 6 5 5 6 7 6 12 14 16
4 6 7 8 7 5 6 6 4 2 1 2 2 2 2 2 2 2 3 3 4 5 5 4 4 4 5 6 7 8 8 7 5 5 6 7 8 8
4 5 7 7 5 4 4 3 2 2 2 2 2 2 1 1 2 2 2 3 3 4 3 4 4 5 5 7 8 9 8 7 6 7 8 8 8 7
3 2 2 2 2 2 2 2 2 2 2 1 2 2 2 2 2 2 2 2 3 4 5 4 4 5 7 8 7 8 8 8 7 8 8 10 9 8
5 3 4 4 4 4 3 3 3 3 2 2 2 2 2 2 2 2 2 2 4 5 5 5 5 5 5 5 8 8 7 7 8 8 7 9 11 9
5 4 4 4 4 4 3 3 3 3 3 3 3 2 2 2 2 2 3 3 4 5 5 4 3 3 6 8 6 6 6 8 9 9 7 7 11 12
4 4 4 4 4 4 4 4 3 3 3 3 3 2 3 2 2 3 3 4 4 5 5 4 3 3 4 6 8 8 10 9 7 9 9 9 9 13
4 4 4 4 4 4 4 4 4 3 3 3 3 3 3 3 3 3 3 6 5 4 6 6 5 8 5 4 7 8 7 9 11 9 9 9 9 8
5 5 4 4 4 4 4 4 4 4 4 3 3 3 3 3 4 4 4 4 4 5 6 6 6 5 3 5 8 10 11 10 11 15 13 11 7 7
5 4 4 4 4 4 4 4 5 4 4 4 3 3 3 3 3 3 4 4 4 5 5 6 5 4 4 5 7 8 11 11 9 9 8 11 14 17
Wind_Direction
303 308 306 308 315 296 273 248 260 288 290 296 321 340 339 335 345 344 332 338 346 347 350 353 352 349 349 347 346 345 342 338 333 329 326 321 316 309
267 278 297 302 312 313 284 265 240 247 272 293 292 316 326 335 341 341 329 344 346 348 351 350 350 350 349 346 344 341 337 335 333 329 327 324 319 317
272 248 270 282 290 302 296 279 264 248 265 284 288 311 314 322 327 329 328 332 330 342 344 346 347 346 344 342 339 337 336 333 332 331 329 327 325 317
250 251 266 270 280 284 285 284 277 264 261 283 297 307 304 310 315 320 331 334 323 333 340 343 345 345 341 339 335 333 332 331 330 328 326 325 325 323
232 234 248 240 259 264 265 271 275 279 264 272 291 298 300 314 320 319 322 320 324 332 339 343 343 342 342 339 334 333 331 328 327 326 325 325 324 322
231 232 236 230 242 248 255 261 269 275 277 276 286 298 299 306 316 322 326 328 321 330 336 337 335 338 340 339 335 334 332 330 328 327 326 325 324 322
235 238 240 240 246 244 244 247 253 260 270 278 287 298 305 321 324 319 315 319 308 324 324 320 322 322 329 332 333 332 332 330 329 328 328 326 324 322
233 241 249 255 261 263 265 264 257 256 259 266 279 290 296 297 302 313 317 326 314 334 330 311 317 311 312 313 325 329 332 334 332 330 328 326 323 321
223 230 242 245 252 252 267 276 284 288 278 259 261 274 282 284 295 301 302 301 289 307 317 297 309 304 309 320 328 332 336 337 335 332 328 324 322 320
219 218 226 242 244 233 225 241 256 274 279 271 238 251 262 273 264 282 291 296 284 287 310 291 307 299 309 313 325 335 339 337 335 332 329 327 324 320
225 221 223 231 248 247 229 231 248 266 283 277 280 290 304 316 329 334 320 318 309 312 331 298 307 308 300 297 315 331 333 331 329 327 327 326 324 322
228 228 237 237 244 247 226 216 241 250 250 287 301 315 326 325 336 338 303 299 303 302 327 323 310 326 313 293 297 309 315 320 325 326 325 325 324 320
226 226 233 244 247 247 239 217 239 246 219 234 263 283 294 295 298 290 271 260 270 272 296 320 300 302 287 300 301 294 297 306 313 314 319 321 320 317
226 221 224 239 245 248 246 237 249 257 189 219 258 275 283 287 285 285 280 268 258 263 275 275 272 282 292 296 296 301 301 299 301 303 304 313 315 313
222 226 230 237 238 245 248 246 243 206 194 231 254 264 263 267 282 293 293 287 283 275 273 262 255 269 271 280 290 296 306 304 297 297 301 304 301 302
225 232 237 236 225 224 240 247 212 191 201 226 247 256 265 271 283 294 302 314 309 300 280 268 264 263 272 273 277 286 290 291 299 301 301 297 293 288
198 187 196 198 203 200 201 210 206 210 228 220 227 246 262 275 287 299 295 303 296 301 308 303 281 270 261 264 277 277 283 286 287 297 304 302 295 289
217 204 210 211 215 214 215 217 212 216 219 218 224 232 248 264 284 294 287 285 290 295 298 306 319 319 307 274 240 263 278 284 293 297 296 298 298 296
222 213 214 214 215 213 214 215 218 214 205 212 222 227 235 249 264 280 285 286 288 291 293 297 306 312 316 312 292 240 269 291 297 298 293 289 291 295
216 216 217 215 212 214 215 216 216 208 205 214 218 221 222 234 252 265 271 277 286 292 295 292 283 274 275 287 292 290 281 279 288 295 297 294 284 285
220 218 215 211 210 211 212 211 208 208 209 209 215 218 220 225 245 255 264 280 287 286 291 292 282 294 285 283 287 290 289 285 286 286 293 299 300 299
221 218 215 210 208 207 205 203 205 209 209 213 216 219 220 224 241 253 261 272 277 279 284 289 294 299 287 284 289 294 299 303 302 296 283 270 283 294
218 214 211 209 206 201 199 202 206 211 210 211 213 216 218 229 239 249 259 266 277 285 293 299 302 295 285 280 287 293 298 305 309 313 303 297 295 287